This is the latest recevied weather packets stored in our database for station/object KC9EGS. If no packets are shown the sender has not sent any weather packets the latest 10 day(s).
| Time | Temp. | Humidity | Pressure | Rain* | Wind** | Luminosity | Snow |
|---|---|---|---|---|---|---|---|
| 1778011523 | 6.11° C | 42% | 1005.1 hPa | 0 mm | - | - | - |
| 1778011305 | 6.11° C | 42% | 1005.1 hPa | 0 mm | - | - | - |
| 1778010925 | 6.11° C | 44% | 1005.1 hPa | 0 mm | - | - | - |
| 1778010406 | 6.11° C | 43% | 1005.1 hPa | 0 mm | - | - | - |
| 1778010324 | 6.11° C | 44% | 1005.1 hPa | 0 mm | - | - | - |
| 1778009722 | 6.11° C | 45% | 1004.9 hPa | 0 mm | - | - | - |
| 1778009507 | 6.11° C | 45% | 1004.9 hPa | 0 mm | - | - | - |
| 1778008607 | 6.11° C | 47% | 1004.7 hPa | 0 mm | - | - | - |
| 1778008524 | 6.11° C | 52% | 1004.7 hPa | 0 mm | - | - | - |
| 1778007924 | 6.11° C | 46% | 1004.5 hPa | 0 mm | - | - | - |
| 1778007706 | 6.11° C | 47% | 1004.5 hPa | 0 mm | - | - | - |
| 1778007324 | 5.56° C | 48% | 1004.5 hPa | 0 mm | - | - | - |
| 1778006806 | 5.56° C | 48% | 1004.5 hPa | 0 mm | - | - | - |
| 1778006724 | 5.56° C | 48% | 1004.5 hPa | 0 mm | - | - | - |
| 1778005907 | 5.56° C | 47% | 1004.1 hPa | 0 mm | - | - | - |
| 1778005524 | 5.56° C | 49% | 1004 hPa | 0 mm | - | - | - |
| 1778005005 | 5.56° C | 44% | 1004 hPa | 0 mm | - | - | - |
| 1778004923 | 5.56° C | 44% | 1004 hPa | 0 mm | - | - | - |
| 1778004323 | 5.56° C | 45% | 1003.9 hPa | 0 mm | - | - | - |
| 1778004106 | 5.56° C | 44% | 1003.9 hPa | 0 mm | - | - | - |
| 1778003723 | 6.11° C | 44% | 1003.6 hPa | 0 mm | - | - | - |
| 1778003206 | 6.11° C | 46% | 1003.6 hPa | 0 mm | - | - | - |
| 1778003123 | 6.11° C | 46% | 1003.6 hPa | 0 mm | - | - | - |
| 1778002523 | 5.56° C | 45% | 1003.7 hPa | 0 mm | - | - | - |
| 1778002306 | 6.11° C | 44% | 1003.7 hPa | 0 mm | - | - | - |
* Rain latest hour (hover to see other rain measurements)
** Current wind speed in m/s (hover to see current wind gust speed)